Location: Newark
(25.0000°N, 73.5000°E)
Time: 23:24:16
(UTC+00:00)

Tiros 1 despin weight - Visible Passes

Search period start: 30 July 2021 00:00
Search period end: 09 August 2021 00:00
Orbit: 593 x 642 km, 48.2° (Epoch: 30 July)

Date Brightness Start Highest point End Pass type
(mag) Time Alt. Az. Time Alt. Az. Time Alt. Az.
30 Jul ? 15:42:42 10° NNW 15:47:10 47° NE 15:47:10 47° NE visible
31 Jul ? 14:18:36 10° N 14:21:32 16° NNE 14:24:25 10° ENE visible
31 Jul ? 15:58:50 10° NW 16:02:45 61° WNW 16:02:45 61° WNW visible
01 Aug ? 14:33:59 10° NNW 14:38:06 30° NE 14:41:22 14° E visible
01 Aug ? 16:15:31 10° WNW 16:18:25 27° WSW 16:18:25 27° WSW visible
02 Aug ? 14:49:51 10° NW 14:54:28 66° NE 14:57:07 24° ESE visible
02 Aug ? 16:33:32 10° W 16:34:10 11° WSW 16:34:10 11° WSW visible
03 Aug ? 15:06:10 10° NW 15:10:41 52° SW 15:12:57 26° SSE visible
04 Aug ? 15:23:12 10° WNW 15:26:45 22° SW 15:28:53 16° SSW visible
06 Aug ? 14:13:38 10° WNW 14:17:53 36° SW 14:22:06 10° SSE visible
07 Aug ? 14:31:11 10° W 14:33:55 16° SW 14:36:39 10° SSW visible
